[[{"header":{"parameterUnit":"m.s-1","parameterCategory":1,"la1":30.2991,"la2":30.254,"lo1":-89.0895,"lo2":-89.0444,"dy":0.0017,"dx":0.0017,"nx":28,"ny":28,"refTime":"2025-04-05T21:00:00:Z","depth":0,"parameterNumber":2,"parameterNumberName":"U-component_of_WINDS"},"data":[0,0,0,0,0,0,0,0,0,0,0,0,0,0,0,0,0,0,0,0,0,0,0,0,0,0,0,0,0,0,0,0,0,0,0,0,0,0,0,0,0,0,0,0,0,0,0,0,0,0,0,0,0,0,0,0,0,0,-0.495,-0.4951,0,-0.5004,-0.5004,-0.5005,-0.5045,-0.5045,-0.5046,-0.5046,-0.51,-0.5101,-0.5102,0,0,0,0,0,0,0,0,0,0,0,0,0,-0.4883,-0.4884,-0.495,-0.4951,-0.4952,-0.5003,-0.5004,-0.5005,-0.5045,-0.5045,-0.5046,-0.5046,-0.5099,-0.5101,-0.5102,0,0,0,0,0,0,0,0,0,0,0,0,0,-0.4922,-0.4885,-0.495,-0.4978,-0.4981,-0.5003,-0.5004,-0.5005,-0.5045,-0.5045,-0.5046,-0.5046,-0.5099,-0.5101,-0.5102,-0.5101,0,0,-0.5107,-0.5108,0,0,0,0,0,0,0,0,-0.492,-0.4924,-0.4973,-0.4976,-0.4979,-0.5018,-0.5,-0.5037,-0.5045,-0.502,-0.5046,-0.5047,-0.5072,-0.5076,-0.5085,-0.5104,-0.5106,-0.5107,-0.5108,-0.5109,-0.5109,0,0,0,0,0,0,0,-0.4917,-0.4922,-0.4971,-0.4974,-0.4978,-0.4988,-0.4994,-0.5007,-0.5043,-0.5023,-0.5026,-0.5031,-0.5074,-0.5083,-0.5086,-0.5107,-0.5107,-0.5109,-0.511,-0.511,-0.5128,-0.5128,0,0,0,0,0,0,-0.491,-0.492,-0.497,-0.4973,-0.495,-0.4988,-0.4995,-0.5005,-0.5042,-0.5049,-0.5031,-0.5033,-0.508,-0.5084,-0.5088,-0.509,-0.5109,-0.5111,-0.5111,-0.5129,-0.5128,-0.5127,0,0,0,0,0,0,-0.4908,-0.4914,-0.4968,-0.4947,-0.4955,-0.4989,-0.5,-0.5006,-0.5015,-0.5049,-0.5055,-0.5034,-0.5081,-0.5086,-0.5098,-0.5092,-0.5111,-0.5113,-0.5129,-0.5128,-0.5128,-0.5092,0,0,0,0,0,0,-0.4906,-0.4913,-0.4913,-0.4947,-0.4956,-0.4976,-0.4999,-0.5007,-0.5018,-0.5021,-0.5053,-0.5059,-0.5081,-0.5095,-0.5099,-0.5095,-0.5114,-0.513,-0.5129,-0.5128,-0.5094,-0.5091,-0.5087,0,0,0,0,0,-0.4904,-0.4901,-0.4913,-0.4919,-0.4956,-0.4976,-0.4981,-0.5007,-0.5017,-0.5017,-0.5039,-0.5058,-0.5092,-0.5096,-0.5101,-0.5097,-0.513,-0.5129,-0.5128,-0.5096,-0.5091,-0.5087,0,0,0,0,0,0,-0.4865,-0.4906,-0.492,-0.4928,-0.4948,-0.4982,-0.4983,-0.5001,-0.5019,-0.5021,-0.5053,-0.5059,-0.5068,-0.5084,-0.5087,-0.5098,-0.5114,-0.5113,-0.5087,-0.5083,-0.508,-0.5076,-0.5115,0,0,0,0,0,-0.4858,-0.487,-0.4905,-0.4909,-0.4918,-0.4949,-0.4958,-0.4977,-0.4999,-0.5008,-0.503,-0.5051,-0.5066,-0.5076,-0.5092,-0.5097,-0.5104,-0.5097,-0.5093,-0.509,-0.5089,-0.5093,-0.509,-0.5124,-0.5124,-0.5124,0,0,-0.4843,-0.4866,-0.4872,-0.4902,-0.492,-0.4932,-0.4956,-0.4968,-0.4977,-0.5009,-0.5022,-0.5039,-0.5064,-0.5073,-0.5078,-0.5086,-0.5082,-0.5089,-0.5086,-0.5087,-0.5092,-0.5089,-0.5086,-0.5123,-0.5123,-0.5123,0,0,-0.4821,-0.484,-0.4845,-0.4863,-0.4889,-0.491,-0.4911,-0.4943,-0.4956,-0.4969,-0.4994,-0.5005,-0.5031,-0.5048,-0.506,-0.5045,-0.5063,-0.505,-0.5031,-0.5035,-0.5032,-0.503,-0.5025,-0.5022,-0.5049,-0.5049,-0.5049,0,-0.4798,-0.4817,-0.4845,-0.4856,-0.4868,-0.4899,-0.4904,-0.492,-0.495,-0.4958,-0.4967,-0.5001,-0.502,-0.5033,-0.5029,-0.5038,-0.504,-0.5046,-0.503,-0.5029,-0.5027,-0.5022,-0.502,-0.5047,-0.5047,-0.5047,-0.5048,0,-0.4788,-0.4801,-0.4802,-0.4831,-0.4844,-0.4851,-0.4881,-0.489,-0.4907,-0.4927,-0.494,-0.4964,-0.4986,-0.499,-0.5007,-0.5006,-0.501,-0.5025,-0.5041,-0.5021,-0.5017,-0.5016,-0.5044,-0.5045,-0.5046,-0.5046,0,0,-0.4743,-0.4788,-0.4788,-0.4801,-0.4833,-0.4844,-0.4853,-0.4875,-0.4882,-0.4902,-0.491,-0.4932,-0.4946,-0.4959,-0.4979,-0.4982,-0.4968,-0.4996,-0.4997,-0.499,-0.4968,-0.4957,-0.4954,-0.4981,-0.498,-0.498,-0.4966,0,-0.4726,-0.4744,-0.477,-0.478,-0.4792,-0.4821,-0.483,-0.485,-0.4869,-0.4882,-0.4903,-0.4917,-0.4934,-0.4943,-0.4947,-0.4969,-0.4964,-0.497,-0.4989,-0.4989,-0.4981,-0.4952,-0.494,-0.4925,-0.4964,-0.4964,-0.4964,0,-0.4708,-0.4727,-0.4738,-0.4769,-0.4775,-0.4782,-0.4804,-0.4816,-0.484,-0.4853,-0.4869,-0.489,-0.4901,-0.4916,-0.4932,-0.4936,-0.4945,-0.4957,-0.4957,-0.4959,-0.4975,-0.4953,-0.4921,-0.4919,-0.4962,-0.4962,-0.4962,0,-0.4674,-0.4702,-0.4712,-0.4723,-0.476,-0.4764,-0.4779,-0.4804,-0.4815,-0.4834,-0.4842,-0.4862,-0.4873,-0.4888,-0.4914,-0.4922,-0.4927,-0.4944,-0.4938,-0.4938,-0.4938,-0.4937,-0.4906,-0.4944,-0.4944,-0.4944,-0.4944,0,-0.4652,-0.4657,-0.4697,-0.4703,-0.4711,-0.474,-0.4747,-0.4765,-0.4786,-0.4797,-0.4824,-0.4833,-0.4866,-0.488,-0.49,-0.491,-0.4915,-0.4926,-0.4931,-0.4923,-0.4922,-0.493,-0.4931,-0.4943,-0.4944,-0.4944,-0.4944,0,-0.4615,-0.4642,-0.4655,-0.4689,-0.4697,-0.4701,-0.473,-0.4737,-0.4758,-0.477,-0.4775,-0.4807,-0.4824,-0.4851,-0.4876,-0.489,-0.4896,-0.4905,-0.4888,-0.4891,-0.4884,-0.4884,-0.4856,-0.4854,-0.4893,-0.4893,-0.4893,0,-0.4599,-0.4604,-0.4638,-0.4647,-0.4662,-0.4675,-0.4687,-0.4717,-0.4728,-0.4756,-0.476,-0.4779,-0.4795,-0.4821,-0.4846,-0.4865,-0.4875,-0.4864,-0.4878,-0.487,-0.4875,-0.4874,-0.4875,-0.4861,-0.486,-0.486,-0.4859,0,-0.4567,-0.4581,-0.4597,-0.4617,-0.463,-0.4648,-0.4667,-0.4673,-0.4707,-0.4718,-0.4735,-0.4748,-0.4774,-0.4792,-0.4815,-0.4831,-0.4851,-0.4855,-0.4854,-0.4846,-0.4836,-0.4841,-0.4879,-0.4855,-0.4855,-0.4856,-0.4856,-0.4856,-0.454,-0.4546,-0.4571,-0.4588,-0.4606,-0.4623,-0.4631,-0.4653,-0.4668,-0.4691,-0.4708,-0.4724,-0.4748,-0.4781,-0.4796,-0.481,-0.4818,-0.4818,-0.4818,-0.4817,-0.4814,-0.4834,-0.4814,-0.4814,-0.4814,-0.4814,-0.4815,0,-0.451,-0.4528,-0.4543,-0.4569,-0.4582,-0.46,-0.4622,-0.4632,-0.4646,-0.4667,-0.4683,-0.4703,-0.4721,-0.4748,-0.4769,-0.4774,-0.4783,-0.4778,-0.4778,-0.4781,-0.4805,-0.4803,-0.477,-0.477,-0.477,-0.477,-0.477,-0.477,-0.4496,-0.4507,-0.4523,-0.4543,-0.4561,-0.4577,-0.4588,-0.4604,-0.4621,-0.4642,-0.4658,-0.4675,-0.4699,-0.4721,-0.4738,-0.4746,-0.4752,-0.4744,-0.4754,-0.4776,-0.478,-0.4784,-0.4782,-0.4745,-0.4745,-0.4729,-0.4729,-0.4729]},{"header":{"parameterUnit":"m.s-1","parameterCategory":1,"la1":30.2991,"la2":30.254,"lo1":-89.0895,"lo2":-89.0444,"dy":0.0017,"dx":0.0017,"nx":28,"ny":28,"refTime":"2025-04-05T21:00:00:Z","depth":0,"parameterNumber":3,"parameterNumberName":"V-component_of_WINDS"},"data":[0,0,0,0,0,0,0,0,0,0,0,0,0,0,0,0,0,0,0,0,0,0,0,0,0,0,0,0,0,0,0,0,0,0,0,0,0,0,0,0,0,0,0,0,0,0,0,0,0,0,0,0,0,0,0,0,0,0,6.2953,6.2954,0,6.3043,6.3044,6.3045,6.305,6.3049,6.3048,6.3047,6.3135,6.3138,6.3141,0,0,0,0,0,0,0,0,0,0,0,0,0,6.2783,6.2786,6.2953,6.2954,6.2955,6.3043,6.3044,6.3045,6.3051,6.3049,6.3048,6.3047,6.3134,6.3138,6.3142,0,0,0,0,0,0,0,0,0,0,0,0,0,6.2863,6.2787,6.2953,6.2968,6.2971,6.3043,6.3044,6.3046,6.3051,6.3049,6.3048,6.3046,6.3133,6.3137,6.3142,6.3203,0,0,6.3157,6.3159,0,0,0,0,0,0,0,0,6.2858,6.2869,6.2965,6.2967,6.297,6.3034,6.3016,6.3098,6.3051,6.302,6.3047,6.3046,6.3102,6.311,6.313,6.3207,6.3211,6.3158,6.3161,6.3163,6.3164,0,0,0,0,0,0,0,6.2853,6.2865,6.2988,6.2966,6.297,6.297,6.298,6.3032,6.3068,6.3023,6.3023,6.3034,6.3103,6.3125,6.3132,6.3212,6.3158,6.3162,6.3165,6.3167,6.3346,6.3348,0,0,0,0,0,0,6.2845,6.2861,6.2985,6.2991,6.291,6.2974,6.2985,6.3015,6.3068,6.3075,6.3036,6.3034,6.3117,6.3126,6.3135,6.3211,6.3163,6.3167,6.317,6.3344,6.3347,6.3349,0,0,0,0,0,0,6.2841,6.2856,6.2982,6.2926,6.2942,6.2979,6.3012,6.3018,6.3039,6.3078,6.3084,6.3051,6.3116,6.3128,6.3187,6.3214,6.317,6.3174,6.3342,6.3345,6.3348,6.3363,0,0,0,0,0,0,6.2836,6.2854,6.2878,6.2927,6.2945,6.3033,6.3014,6.302,6.3048,6.3047,6.3094,6.31,6.3116,6.318,6.3192,6.322,6.3178,6.334,6.3343,6.3347,6.3361,6.3366,6.3371,0,0,0,0,0,6.283,6.2878,6.288,6.2895,6.2976,6.3035,6.3045,6.3064,6.305,6.3075,6.31,6.3099,6.3209,6.3186,6.3199,6.323,6.3338,6.3342,6.3346,6.3358,6.3365,6.3371,0,0,0,0,0,0,6.2829,6.2884,6.2887,6.2952,6.2989,6.3036,6.3067,6.3071,6.3111,6.3108,6.3129,6.3139,6.3198,6.3219,6.3192,6.3292,6.3272,6.3279,6.3276,6.3283,6.3289,6.3282,6.3182,0,0,0,0,0,6.2837,6.2881,6.2926,6.2979,6.2998,6.3029,6.3055,6.3067,6.3106,6.3121,6.315,6.3186,6.323,6.3257,6.3299,6.3364,6.3375,6.3392,6.3397,6.3401,6.3407,6.3445,6.3454,6.3362,6.3362,6.3362,0,0,6.2853,6.2888,6.2914,6.298,6.301,6.3055,6.3042,6.3089,6.3123,6.3127,6.3186,6.3209,6.3251,6.3313,6.3342,6.3333,6.3435,6.3406,6.3409,6.3413,6.345,6.3459,6.3466,6.3365,6.3364,6.3364,0,0,6.2905,6.2936,6.2985,6.3016,6.3062,6.3083,6.3095,6.3142,6.3158,6.3218,6.3223,6.3262,6.3335,6.3366,6.3391,6.3458,6.3459,6.347,6.3498,6.3535,6.3542,6.3549,6.3574,6.3583,6.3476,6.3476,6.3476,0,6.2918,6.2987,6.3008,6.3057,6.3086,6.3095,6.3144,6.3173,6.323,6.325,6.3239,6.3334,6.3362,6.3433,6.345,6.3469,6.3484,6.3465,6.354,6.3547,6.3553,6.3577,6.3587,6.3478,6.3477,6.3477,6.3477,0,6.3002,6.305,6.3084,6.3142,6.3174,6.3223,6.3251,6.3282,6.3291,6.3313,6.3374,6.3409,6.3459,6.3477,6.3485,6.355,6.3543,6.3536,6.3516,6.3563,6.3586,6.3595,6.3479,6.3479,6.3478,6.3478,0,0,6.3055,6.3126,6.3138,6.3166,6.3219,6.3256,6.3305,6.3357,6.3383,6.3422,6.3465,6.3528,6.3523,6.3551,6.3563,6.3595,6.3648,6.3585,6.3586,6.3597,6.3724,6.373,6.374,6.3649,6.3651,6.3653,6.3721,0,6.3114,6.3204,6.3226,6.3303,6.3348,6.3358,6.3401,6.3438,6.346,6.3501,6.3525,6.3571,6.3559,6.3577,6.3609,6.3635,6.3674,6.363,6.3689,6.3691,6.3679,6.3752,6.3758,6.382,6.373,6.3731,6.3732,0,6.3195,6.3239,6.3321,6.3371,6.3391,6.343,6.348,6.3519,6.3561,6.3575,6.3609,6.3618,6.367,6.3647,6.3719,6.3689,6.3714,6.3731,6.3734,6.3741,6.3715,6.3762,6.3841,6.385,6.3747,6.3745,6.3744,0,6.3228,6.3307,6.3368,6.339,6.3449,6.3477,6.3502,6.3544,6.3574,6.3617,6.3637,6.3684,6.3711,6.3747,6.377,6.3751,6.3841,6.3819,6.3854,6.3853,6.3872,6.3871,6.3958,6.3887,6.3887,6.3887,6.3886,0,6.3292,6.3342,6.3384,6.3421,6.3477,6.3502,6.3557,6.3582,6.3619,6.3661,6.3671,6.371,6.3737,6.378,6.3797,6.3855,6.3866,6.3879,6.3883,6.3879,6.3878,6.3896,6.3893,6.3889,6.3889,6.3888,6.3888,0,6.3338,6.3368,6.3434,6.3486,6.35,6.354,6.3583,6.362,6.3643,6.3696,6.371,6.3746,6.3797,6.3823,6.3885,6.3897,6.3963,6.3964,6.395,6.3951,6.3985,6.3982,6.4087,6.4103,6.4021,6.4022,6.4022,0,6.3378,6.3417,6.3474,6.3504,6.3531,6.3578,6.361,6.3635,6.3668,6.3721,6.3751,6.3803,6.3846,6.3927,6.3958,6.4007,6.401,6.4043,6.4017,6.4012,6.4012,6.401,6.4015,6.4048,6.4049,6.4049,6.405,0,6.3445,6.3459,6.3505,6.3557,6.3596,6.3637,6.3678,6.3702,6.3734,6.377,6.3824,6.3857,6.3923,6.3975,6.4026,6.4052,6.4057,6.4058,6.4069,6.4065,6.4056,6.4063,6.3964,6.4056,6.4055,6.4055,6.4054,6.4054,6.3491,6.3527,6.3574,6.3625,6.3659,6.3698,6.3736,6.3765,6.3811,6.3868,6.3879,6.3936,6.398,6.405,6.4077,6.4122,6.4114,6.4129,6.4134,6.4137,6.414,6.4049,6.4131,6.4131,6.413,6.413,6.413,0,6.356,6.3591,6.3639,6.3698,6.3738,6.3741,6.3788,6.3821,6.3872,6.3913,6.3956,6.4018,6.4069,6.4106,6.4157,6.4186,6.419,6.4199,6.4198,6.4204,6.4142,6.4129,6.4196,6.4196,6.4195,6.4195,6.4195,6.4195,6.3601,6.3664,6.3683,6.3763,6.3793,6.3851,6.3877,6.3913,6.3947,6.4017,6.406,6.4084,6.4123,6.4178,6.4225,6.4235,6.4254,6.4263,6.4273,6.4215,6.4208,6.4201,6.4189,6.4267,6.4267,6.4331,6.4331,6.4332]}]]